Retour au catalogue

DELTA 1 DEB

ActifPO
NORAD 21933·DEBRIS·🇺🇸 United States

Lancé Jun 12, 1975 depuis Vandenberg Space Force Base

Loading…

Prochains Passages (prochaines 24 heures)

TLE

FraisSource: Space-Track

Époque: Sep 12, 2026, 01:44 UTC

1 21933U 75052JT  26255.07284811  .00000038  00000-0  16427-3 0  9992
2 21933  99.3151 305.1214 0158739  97.3745 293.6226 13.23652255683733

Suivez DELTA 1 DEB en temps réel avec AllMySat

Download on the App Store